Regional Weather Roundup
Issued by NWS

Home | Current Version | Previous Version | Text Only | Print | Product List | Glossary Off
Versions: 1 2 3 4 5 6 7 8 9 10 11 12 13 14 15 16 17 18 19 20 21 22 23 24 25 26 27 28 29 30 31 32 33 34 35 36 37 38 39 40 41 42 43 44 45 46 47 48 49 50

330
ASUS43 KLOT 210903
RWRIL

ILLINOIS REGIONAL WEATHER ROUNDUP
NATIONAL WEATHER SERVICE CHICAGO/ROMEOVILLE IL
400 AM CDT MON MAY 21 2018

NOTE: "FAIR" INDICATES FEW OR NO CLOUDS BELOW 12,000 FEET WITH NO
SIGNIFICANT WEATHER AND/OR OBSTRUCTIONS TO VISIBILITY.

* THESE STATIONS ARE NOT UNDER NWS QUALITY CONTROL. THEY ALSO MAY NOT
  REPORT WEATHER SUCH AS PRECIPITATION OR FOG.

ILZ001-002-007-009-015-016-024-211000-
NORTHWEST ILLINOIS

CITY           SKY/WX    TMP DP  RH WIND       PRES   REMARKS
MOLINE         LGT RAIN  56  54  93 E12       30.07F
SAVANNA*       RAIN      52  51  95 E9        30.11F
$$

ILZ003-004-008-010-011-017-018-211000-
NORTH CENTRAL ILLINOIS

CITY           SKY/WX    TMP DP  RH WIND       PRES   REMARKS
ROCKFORD       LGT RAIN  50  46  86 NE7       30.15S
FREEPORT*      RAIN      49  47  92 NE7       30.15R
ROCHELLE*      MOCLDY    52  49  92 E9        30.12F
DE KALB*       CLOUDY    51  50  96 E7        30.13F
PERU*          CLOUDY    56  51  82 E8        30.10F
$$

ILZ005-006-012>014-019>023-211000-
NORTHEAST ILLINOIS

CITY           SKY/WX    TMP DP  RH WIND       PRES   REMARKS
CHICAGO-OHARE  CLOUDY    50  43  77 NE8       30.13F
CHICAGO-MIDWAY CLOUDY    52  47  83 NE5       30.14S
AURORA         MOCLDY    52  49  89 E9        30.11F
LANSING*       CLOUDY    49  49 100 NE3       30.14R
JOLIET*        MOCLDY    53  52  94 NE6       30.11F
WAUKEGAN       CLOUDY    47  43  86 NE8       30.14F
DUPAGE AIRPORT CLOUDY    50  47  89 NE6       30.12F
KANKAKEE*      CLOUDY    52  51  97 NE6       30.11F
WHEELING       CLOUDY    49  44  83 NE5       30.17R
MORRIS*        MOCLDY    53  50  90 NE5       30.10F
ROMEOVILLE*    CLOUDY    51  49  90 NE7       30.12F
NORTHERLY ISL    N/A     48  44  86 N6          N/A
$$

LMZ740>746-211000-
SOUTHERN LAKE MICHIGAN

STATION/POSITION SKY/WX   TEMP    WIND        PRES    VSBY  WAVE
                          AIR SEA DIR/SP/G                  HT/PER
                          (F)     (DEG/KT/KT) (MB)    (MI)  (FT/S)
WILMETTE HARBOR            44 46  350/  8/ 12   N/A           2/ 5
HARRISON CRIB              47      10/  8/  8   N/A
BURNHAM HARBOR             48     360/  7/  8   N/A
CALUMET HARBOR             48     360/  5/  8 1020.1
BURNS HARBOR               51        CALM     1021.0S
MICHIGAN CITY 6N           53 53   70/  6/  8   N/A           2/ 5
ST. JOSEPH                 55 52  110/  8/ 10 1021.0F         2/ 5
$$

ILZ025>027-034>036-040-047-049-050-058-095>099-211000-
WEST-CENTRAL ILLINOIS

CITY           SKY/WX    TMP DP  RH WIND       PRES   REMARKS
QUINCY         CLOUDY    65  63  93 SW3       30.03R
GALESBURG*     LGT RAIN  55  54  95 E7        30.08F
MACOMB*        LGT RAIN  58  56  95 E8        30.07F
JACKSONVILLE*  CLOUDY    64  63  97 E10       30.02F FOG
PITTSFIELD*    DRIZZLE   66  66  99 SE6       30.04R
$$

ILZ028>032-037-038-041>044-048-051>054-059>061-211000-
CENTRAL ILLINOIS

CITY           SKY/WX    TMP DP  RH WIND       PRES   REMARKS
PONTIAC        HVY RAIN  55  55  99 NE3       30.10F
BLOOMINGTON    TSTM      56  54  93 E8        30.09S FOG
DECATUR        MOCLDY    61  59  93 E7        30.06F
PEORIA         TSTM      56  55  97 E7        30.10R FOG
LACON*         DRIZZLE   54  52  93 CALM      30.08S
LINCOLN*       RAIN      61  60  96 CALM      30.07F
SPRINGFIELD    MOCLDY    62  61  96 N9        30.03F
TAYLORVILLE    MOCLDY    67  66  99 CALM      30.03F
$$

ILZ033-039-045-046-055>057-062-063-211000-
EAST-CENTRAL ILLINOIS

CITY           SKY/WX    TMP DP  RH WIND       PRES   REMARKS
CHAMPAIGN      MOCLDY    61  58  90 E6        30.09R
DANVILLE*      FAIR      62  61  99 E5        30.06S
RANTOUL*       MOCLDY    60  59  94 E5        30.09R
MATTOON        FAIR      66  65  96 NE5       30.05F FOG
PARIS*         FAIR      64  64  97 CALM      30.08R
$$

ILZ079-100>102-211000-
SOUTHWEST ILLINOIS

CITY           SKY/WX    TMP DP  RH WIND       PRES   REMARKS
ALTON          CLOUDY    64  64 100 S7        30.04R
CAHOKIA*       CLOUDY    65  63  93 S7        30.04R
SPARTA*        MOCLDY    64  64 100 S5        30.08F
$$

ILZ064>066-069>071-074>076-080>082-084>086-088>090-092>094-211000-
SOUTH-CENTRAL ILLINOIS

CITY           SKY/WX    TMP DP  RH WIND       PRES   REMARKS
CARBONDALE     FAIR      67  65  93 CALM      30.07F
CAIRO*         RAIN      68  67  96 W9        30.11R
EFFINGHAM*     FAIR      67  66  95 CALM      30.06F
MARION         FAIR      66  65  99 CALM      30.08F
CENTRALIA*     CLOUDY    67  66  98 CALM      30.04F
SALEM*         FAIR      67  64  90 W5        30.05F
$$

ILZ067-068-072-073-078-083-087-091-211000-
SOUTHEAST ILLINOIS

CITY           SKY/WX    TMP DP  RH WIND       PRES   REMARKS
LAWRENCEVILLE  FAIR      70  65  84 W5        30.06S
FLORA*         FAIR      69  65  89 CALM      30.06F
FAIRFIELD*     FAIR      66  66  97 CALM      30.06R
HARRISBURG*    FAIR      68  66  94 W3        30.07S
ROBINSON*      FAIR      67  65  93 CALM      30.07S
CARMI*         FAIR      65  65  98 W3        30.05F
$$

ABBREVIATIONS USED IN REMARKS
   TC - TEMPERATURE IN CELSIUS
  WCI - WIND CHILL INDEX
   HX - HEAT INDEX
  VSB - VISIBILITY
$$





USA.gov is the U.S. government's official web portal to all federal, state and local government web resources and services.